Regional Weather Roundup
Issued by NWS Newport/Morehead, NC

Current Version | Previous Version | Graphics & Text | Print | Product List | Glossary Off
Versions: 1 2 3 4 5 6 7 8 9 10 11 12 13 14 15 16 17 18 19 20 21 22 23 24 25 26 27 28 29 30 31 32 33 34 35 36 37 38 39 40 41 42 43 44 45 46 47 48 49 50

084
ASUS42 KMHX 280325
RWRMHX
WEATHER ROUNDUP FOR EASTERN NORTH CAROLINA
NATIONAL WEATHER SERVICE NEWPORT/MOREHEAD CITY NC
1100 PM EDT THU JUL 27 2017

NOTE: "FAIR" INDICATES FEW OR NO CLOUDS BELOW 12,000 FEET
WITH NO SIGNIFICANT WEATHER AND/OR OBSTRUCTIONS TO VISIBILITY

NCZ015>017-031-032-045>047-102-103-280400-
NORTH COAST

CITY           SKY/WX    TMP DP  RH WIND       PRES   REMARKS
EDENTON        MOCLDY    81  72  73 SW13G18   29.93F
ELIZABETH CITY CLOUDY    80  72  76 S13       29.92S
KITTY HAWK     CLOUDY    79  70  73 SW5       29.92F
MANTEO         CLOUDY    79  71  75 SW16      29.94S

$$

NCZ045>047-081-094-103-104-280400-
CENTRAL COAST

CITY           SKY/WX    TMP DP  RH WIND       PRES   REMARKS
FRISCO         PTCLDY    80  71  74 S13G18    29.96S

$$

NCZ095-097-098-100-101-280400-
SOUTHERN COAST

CITY           SKY/WX    TMP DP  RH WIND       PRES   REMARKS
BEAUFORT       CLOUDY    81  71  71 S13       29.97R
CEDAR ISLAND   NOT AVBL
JACKSONVILLE   PTCLDY    77  75  93 S6        29.95S
PINEY ISLAND   CLOUDY   N/A N/A N/A S6        29.96S
WILMINGTON     PTCLDY    77  74  90 S5        29.97S


$$

NCZ011>013-027>030-043-044-078>080-089-090>093-098-280400-
COASTAL PLAIN

CITY           SKY/WX    TMP DP  RH WIND       PRES   REMARKS
AHOSKIE          N/A     78  69  73 S5        29.92S
CLINTON        CLOUDY    78  72  83 CALM      29.96S
ELIZABETHTOWN  NOT AVBL
GOLDSBORO      CLOUDY    79  76  89 S8        29.93S
GREENVILLE     CLOUDY    79  72  78 SW10G17   29.95F
HAVELOCK       CLOUDY    78  69  73 S5        29.97R
KENANSVILLE    MOCLDY    77  73  88 CALM      29.95F
KINSTON        MOCLDY    78  73  85 S9        29.95F
NEW BERN       CLOUDY    77  73  87 S6        29.97S
RICHLANDS      PTCLDY    75  73  93 S3        29.97S
ROCKY MOUNT    MOCLDY    80  71  74 S7        29.93R
WASHINGTON     CLOUDY    78  71  79 S6        29.94F
WHITEVILLE     PTCLDY    77  74  88 CALM      29.96S

$$

AMZ130-135-150-152-154-156-158-170-250-252-270-ANZ085-086-088-633-658-670-280400-
MARINE OBSERVATIONS

STATION/POSITION TIME  TEMP    WIND        PRES    WAVE   SWELL
                       AIR SEA DIR/SP/G            HT/PER HT/PER
                 (UTC) (F)     (DEG/KT/KT) (MB)    (FT/S) (FT/S)
CHESAPEAKE LIGHT NOT AVBL
64 E VA BEACH    0250   79 77  210/ 17/ 19 1013.2    4/ 4   2/ 8
DUCK             0300   80 65  210/ 17/ 20 1012.9
2 E DUCK         0300      73                N/A     2/10
OREGON INLET     0300   81 81  190/ 19/ 22 1013.6
13E OREGON INLT  0248      78                N/A     2/10   2/10
HATTERAS CG      0300   80 80  190/  5/ 12 1014.4
DIAMOND BUOY     0250   81 83  180/ 16/ 17 1014.2    2/ 8   2/ 8
CAPE LOOKOUT     0300   81     180/ 12/ 14 1014.4
BEAUFORT LAB     0300   81 81  190/ 13/ 15 1014.1
30 SE NEW RVR IN 0308   82 84  190/ 10/ 14 1014.8
30 SE NEW RVR IN 0313      84                N/A     2/ 3
27 SE WRIGHTSVLE 0308   82 83  190/ 10/ 14 1014.4
5 SE WRIGHTSVLE  0308   81 82  220/  8/ 14 1014.4
225 S CAPE HAT   0250   82 83  240/  6/  8 1015.6    3/ 7   3/ 7
41 SE CHARLESTON 0310   82 82  190/ 10/ 12 1014.5

$$




USA.gov is the U.S. government's official web portal to all federal, state and local government web resources and services.